Time,TemperatureF,DewpointF,PressureIn,WindDirection,WindDirectionDegrees,WindSpeedMPH,WindSpeedGustMPH,Humidity,HourlyPrecipIn,Conditions,Clouds,dailyrainin,SolarRadiationWatts/m^2,SoftwareType,DateUTC
2013-02-25 00:00:00,40.0,39.2,29.88,ENE,74,3.0,9.0,97,0.16,,---,1.19,0.00,VWS V14.01,2013-02-25 08:00:00,
2013-02-25 00:03:00,40.0,39.2,29.88,ESE,121,1.0,5.0,97,0.16,,---,0.01,0.00,VWS V14.01,2013-02-25 08:03:00,
2013-02-25 00:08:00,40.0,39.2,29.88,ESE,119,7.0,11.0,97,0.17,,---,0.02,0.00,VWS V14.01,2013-02-25 08:08:00,
2013-02-25 00:10:00,40.0,39.2,29.88,SE,124,3.0,11.0,97,0.17,,---,0.02,0.00,VWS V14.01,2013-02-25 08:10:00,
2013-02-25 00:13:00,40.0,39.2,29.88,ESE,121,0.0,5.0,97,0.16,,---,0.03,0.00,VWS V14.01,2013-02-25 08:13:00,
2013-02-25 00:18:00,40.0,39.2,29.88,ESE,103,1.0,8.0,97,0.17,,---,0.05,0.00,VWS V14.01,2013-02-25 08:18:00,
2013-02-25 00:20:00,40.1,39.3,29.88,East,86,2.0,8.0,97,0.17,,---,0.05,0.00,VWS V14.01,2013-02-25 08:20:00,
2013-02-25 00:23:00,40.0,39.2,29.88,ESE,110,1.0,12.0,97,0.16,,---,0.06,0.00,VWS V14.01,2013-02-25 08:23:00,
2013-02-25 00:28:00,40.0,39.2,29.87,ESE,104,4.0,12.0,97,0.17,,---,0.07,0.00,VWS V14.01,2013-02-25 08:28:00,
2013-02-25 00:30:00,40.1,39.3,29.87,ESE,119,5.0,12.0,97,0.18,,---,0.08,0.00,VWS V14.01,2013-02-25 08:30:00,
2013-02-25 00:33:00,40.0,39.2,29.87,SE,124,1.0,5.0,97,0.16,,---,0.08,0.00,VWS V14.01,2013-02-25 08:33:00,
2013-02-25 00:38:00,40.0,39.2,29.87,ESE,105,8.0,14.0,97,0.17,,---,0.09,0.00,VWS V14.01,2013-02-25 08:38:00,
2013-02-25 00:40:00,40.0,39.2,29.87,ESE,123,5.0,14.0,97,0.17,,---,0.09,0.00,VWS V14.01,2013-02-25 08:40:00,
2013-02-25 00:43:00,40.1,39.3,29.87,SE,126,4.0,9.0,97,0.15,,---,0.10,0.00,VWS V14.01,2013-02-25 08:43:00,
2013-02-25 00:49:00,40.1,39.3,29.87,SSE,159,0.0,10.0,97,0.16,,---,0.11,0.00,VWS V14.01,2013-02-25 08:49:00,
2013-02-25 00:50:00,40.1,39.3,29.87,ESE,115,1.0,10.0,97,0.16,,---,0.11,0.00,VWS V14.01,2013-02-25 08:50:00,
2013-02-25 00:54:00,40.1,39.3,29.87,ESE,123,1.0,5.0,97,0.15,,---,0.12,0.00,VWS V14.01,2013-02-25 08:54:00,
2013-02-25 00:59:00,40.1,39.3,29.86,ESE,120,2.0,6.0,97,0.16,,---,0.13,0.00,VWS V14.01,2013-02-25 08:59:00,
2013-02-25 01:00:00,40.1,39.3,29.86,ESE,115,5.0,6.0,97,0.17,,---,0.13,0.00,VWS V14.01,2013-02-25 09:00:00,
2013-02-25 01:04:00,40.1,39.3,29.86,ESE,110,4.0,7.0,97,0.13,,---,0.13,0.00,VWS V14.01,2013-02-25 09:04:00,
2013-02-25 01:09:00,40.1,39.3,29.86,East,97,2.0,9.0,97,0.15,,---,0.15,0.00,VWS V14.01,2013-02-25 09:09:00,
2013-02-25 01:10:00,40.1,39.3,29.86,ESE,116,2.0,9.0,97,0.16,,---,0.16,0.00,VWS V14.01,2013-02-25 09:10:00,
2013-02-25 01:14:00,40.1,39.3,29.86,ESE,119,7.0,7.0,97,0.13,,---,0.16,0.00,VWS V14.01,2013-02-25 09:14:00,
2013-02-25 01:19:00,40.1,39.3,29.85,ESE,113,5.0,9.0,97,0.15,,---,0.17,0.00,VWS V14.01,2013-02-25 09:19:00,
2013-02-25 01:20:00,40.1,39.3,29.85,ESE,111,2.0,9.0,97,0.15,,---,0.17,0.00,VWS V14.01,2013-02-25 09:20:00,
2013-02-25 01:24:00,40.1,39.3,29.85,SE,130,5.0,11.0,97,0.13,,---,0.18,0.00,VWS V14.01,2013-02-25 09:24:00,
2013-02-25 01:29:00,40.2,39.4,29.85,SSE,151,7.0,11.0,97,0.14,,---,0.19,0.00,VWS V14.01,2013-02-25 09:29:00,
2013-02-25 01:30:00,40.2,39.4,29.85,ESE,119,3.0,11.0,97,0.14,,---,0.19,0.00,VWS V14.01,2013-02-25 09:30:00,
2013-02-25 01:34:00,40.2,39.4,29.85,East,87,3.0,9.0,97,0.13,,---,0.20,0.00,VWS V14.01,2013-02-25 09:34:00,
2013-02-25 01:40:00,40.2,39.4,29.84,SE,129,2.0,11.0,97,0.13,,---,0.31,0.00,VWS V14.01,2013-02-25 09:40:00,
2013-02-25 01:47:00,40.2,39.4,29.85,ESE,113,3.0,9.0,97,0.17,,---,0.24,0.00,VWS V14.01,2013-02-25 09:47:00,
2013-02-25 01:50:00,40.2,39.4,29.85,East,88,3.0,9.0,97,0.18,,---,0.26,0.00,VWS V14.01,2013-02-25 09:50:00,
2013-02-25 01:52:00,40.2,39.4,29.85,East,80,2.0,5.0,97,0.16,,---,0.27,0.00,VWS V14.01,2013-02-25 09:52:00,
2013-02-25 01:57:00,40.2,39.4,29.84,ESE,123,3.0,10.0,97,0.18,,---,0.29,0.00,VWS V14.01,2013-02-25 09:57:00,
2013-02-25 02:00:00,40.2,39.4,29.84,ESE,104,4.0,10.0,97,0.20,,---,0.31,0.00,VWS V14.01,2013-02-25 10:00:00,
2013-02-25 02:02:00,40.2,39.4,29.84,East,92,1.0,8.0,97,0.17,,---,0.31,0.00,VWS V14.01,2013-02-25 10:02:00,
2013-02-25 02:07:00,40.2,39.4,29.84,East,101,1.0,16.0,97,0.17,,---,0.31,0.00,VWS V14.01,2013-02-25 10:07:00,
2013-02-25 02:10:00,40.1,39.3,29.84,ESE,108,4.0,16.0,97,0.17,,---,0.31,0.00,VWS V14.01,2013-02-25 10:10:00,
2013-02-25 02:12:00,40.1,39.3,29.84,ESE,109,5.0,8.0,97,0.15,,---,0.31,0.00,VWS V14.01,2013-02-25 10:12:00,
2013-02-25 02:17:00,40.1,39.3,29.84,SE,126,3.0,9.0,97,0.15,,---,0.31,0.00,VWS V14.01,2013-02-25 10:17:00,
2013-02-25 02:20:00,40.2,39.4,29.84,ESE,117,5.0,10.0,97,0.15,,---,0.31,0.00,VWS V14.01,2013-02-25 10:20:00,
2013-02-25 02:22:00,40.2,39.4,29.84,ESE,115,2.0,6.0,97,0.13,,---,0.31,0.00,VWS V14.01,2013-02-25 10:22:00,
2013-02-25 02:27:00,40.2,39.4,29.84,SSE,153,4.0,6.0,97,0.13,,---,0.31,0.00,VWS V14.01,2013-02-25 10:27:00,
2013-02-25 02:30:00,40.2,39.4,29.84,ESE,114,5.0,6.0,97,0.13,,---,0.31,0.00,VWS V14.01,2013-02-25 10:30:00,
2013-02-25 02:32:00,40.2,39.4,29.84,SE,144,3.0,5.0,97,0.12,,---,0.31,0.00,VWS V14.01,2013-02-25 10:32:00,
2013-02-25 02:37:00,40.2,39.4,29.84,ESE,121,7.0,10.0,97,0.12,,---,0.31,0.00,VWS V14.01,2013-02-25 10:37:00,
2013-02-25 02:40:00,40.2,39.4,29.84,SE,129,2.0,11.0,97,0.13,,---,0.31,0.00,VWS V14.01,2013-02-25 10:40:00,
2013-02-25 02:42:00,40.2,39.4,29.84,ESE,104,1.0,5.0,97,0.06,,---,0.31,0.00,VWS V14.01,2013-02-25 10:42:00,
2013-02-25 02:47:00,40.2,39.4,29.83,ESE,121,3.0,7.0,97,0.06,,---,0.31,0.00,VWS V14.01,2013-02-25 10:47:00,
2013-02-25 02:50:00,40.2,39.4,29.83,ESE,123,5.0,8.0,97,0.06,,---,0.31,0.00,VWS V14.01,2013-02-25 10:50:00,
2013-02-25 02:52:00,40.2,39.4,29.83,SE,139,5.0,5.0,97,0.06,,---,0.31,0.00,VWS V14.01,2013-02-25 10:52:00,
2013-02-25 02:57:00,40.2,39.4,29.83,ESE,123,4.0,7.0,97,0.06,,---,0.31,0.00,VWS V14.01,2013-02-25 10:57:00,
2013-02-25 03:00:00,40.2,39.4,29.83,ESE,107,3.0,7.0,97,0.06,,---,0.31,0.00,VWS V14.01,2013-02-25 11:00:00,
2013-02-25 03:02:00,40.2,39.4,29.83,SE,126,3.0,4.0,97,0.01,,---,0.31,0.00,VWS V14.01,2013-02-25 11:02:00,
2013-02-25 03:07:00,40.2,39.4,29.82,ESE,109,4.0,8.0,97,0.01,,---,0.31,0.00,VWS V14.01,2013-02-25 11:07:00,
2013-02-25 03:10:00,40.2,39.4,29.82,SE,124,3.0,9.0,97,0.01,,---,0.31,0.00,VWS V14.01,2013-02-25 11:10:00,
2013-02-25 03:12:00,40.2,39.4,29.82,SE,127,7.0,8.0,97,0.01,,---,0.31,0.00,VWS V14.01,2013-02-25 11:12:00,
2013-02-25 03:17:00,40.2,39.4,29.82,South,172,8.0,12.0,97,0.01,,---,0.31,0.00,VWS V14.01,2013-02-25 11:17:00,
2013-02-25 03:20:00,40.2,39.4,29.81,East,93,7.0,12.0,97,0.01,,---,0.31,0.00,VWS V14.01,2013-02-25 11:20:00,
2013-02-25 03:22:00,40.2,39.4,29.82,East,93,3.0,7.0,97,0.01,,---,0.31,0.00,VWS V14.01,2013-02-25 11:22:00,
2013-02-25 03:27:00,40.2,39.4,29.81,East,99,6.0,11.0,97,0.01,,---,0.31,0.00,VWS V14.01,2013-02-25 11:27:00,
2013-02-25 03:30:00,40.2,39.4,29.81,SSE,155,7.0,13.0,97,0.01,,---,0.31,0.00,VWS V14.01,2013-02-25 11:30:00,
2013-02-25 03:32:00,40.2,39.4,29.81,ESE,113,8.0,11.0,97,0.01,,---,0.31,0.00,VWS V14.01,2013-02-25 11:32:00,
2013-02-25 03:37:00,40.2,39.4,29.81,East,96,3.0,12.0,97,0.01,,---,0.31,0.00,VWS V14.01,2013-02-25 11:37:00,
2013-02-25 03:40:00,40.1,39.3,29.81,ESE,113,9.0,13.0,97,0.01,,---,0.31,0.00,VWS V14.01,2013-02-25 11:40:00,
2013-02-25 03:42:00,40.2,39.4,29.81,South,175,6.0,10.0,97,0.00,,---,0.31,0.00,VWS V14.01,2013-02-25 11:42:00,
2013-02-25 03:47:00,40.1,39.3,29.81,East,93,6.0,10.0,97,0.00,,---,0.31,0.00,VWS V14.01,2013-02-25 11:47:00,
2013-02-25 03:50:00,40.1,39.3,29.81,SE,130,6.0,10.0,97,0.00,,---,0.31,0.00,VWS V14.01,2013-02-25 11:50:00,
2013-02-25 03:52:00,40.1,39.3,29.81,ESE,121,4.0,6.0,97,0.00,,---,0.31,0.00,VWS V14.01,2013-02-25 11:52:00,
2013-02-25 03:57:00,40.1,39.3,29.81,SE,128,4.0,9.0,97,0.00,,---,0.31,0.00,VWS V14.01,2013-02-25 11:57:00,
2013-02-25 04:00:00,40.1,39.3,29.81,ESE,115,4.0,11.0,97,0.00,,---,0.31,0.00,VWS V14.01,2013-02-25 12:00:00,
2013-02-25 04:02:00,40.1,39.3,29.81,East,90,7.0,8.0,97,0.00,,---,0.31,0.00,VWS V14.01,2013-02-25 12:02:00,
2013-02-25 04:07:00,40.1,39.3,29.81,ENE,77,8.0,12.0,97,0.00,,---,0.31,0.00,VWS V14.01,2013-02-25 12:07:00,
2013-02-25 04:10:00,40.1,39.3,29.81,ENE,78,7.0,12.0,97,0.00,,---,0.31,0.00,VWS V14.01,2013-02-25 12:10:00,
2013-02-25 04:12:00,40.1,39.3,29.81,ESE,103,7.0,11.0,97,0.00,,---,0.31,0.00,VWS V14.01,2013-02-25 12:12:00,
2013-02-25 04:17:00,40.0,39.2,29.80,ESE,115,7.0,13.0,97,0.00,,---,0.31,0.00,VWS V14.01,2013-02-25 12:17:00,
2013-02-25 04:20:00,40.0,39.2,29.80,ESE,109,8.0,14.0,97,0.00,,---,0.31,0.00,VWS V14.01,2013-02-25 12:20:00,
2013-02-25 04:22:00,40.0,39.2,29.81,ESE,113,10.0,10.0,97,0.00,,---,0.31,0.00,VWS V14.01,2013-02-25 12:22:00,
2013-02-25 04:27:00,39.9,39.1,29.80,SE,129,6.0,14.0,97,0.00,,---,0.31,0.00,VWS V14.01,2013-02-25 12:27:00,
2013-02-25 04:30:00,39.9,39.1,29.81,ESE,113,8.0,14.0,97,0.00,,---,0.31,0.00,VWS V14.01,2013-02-25 12:30:00,
2013-02-25 04:32:00,39.9,39.1,29.81,ESE,102,4.0,9.0,97,0.00,,---,0.31,0.00,VWS V14.01,2013-02-25 12:32:00,
2013-02-25 04:37:00,39.9,39.1,29.81,East,90,9.0,14.0,97,0.00,,---,0.31,0.00,VWS V14.01,2013-02-25 12:37:00,
2013-02-25 04:40:00,39.9,39.1,29.81,East,82,5.0,15.0,97,0.00,,---,0.31,0.00,VWS V14.01,2013-02-25 12:40:00,
2013-02-25 04:42:00,39.9,39.1,29.81,East,81,2.0,12.0,97,0.00,,---,0.31,0.00,VWS V14.01,2013-02-25 12:42:00,
2013-02-25 04:47:00,39.9,39.1,29.82,ESE,102,4.0,12.0,97,0.00,,---,0.31,0.00,VWS V14.01,2013-02-25 12:47:00,
2013-02-25 04:50:00,39.9,39.1,29.82,South,179,3.0,14.0,97,0.00,,---,0.31,0.00,VWS V14.01,2013-02-25 12:50:00,
2013-02-25 04:52:00,39.9,39.1,29.82,ESE,109,5.0,8.0,97,0.00,,---,0.31,0.00,VWS V14.01,2013-02-25 12:52:00,
2013-02-25 04:58:00,40.0,39.2,29.82,East,98,7.0,11.0,97,0.00,,---,0.31,0.00,VWS V14.01,2013-02-25 12:58:00,
2013-02-25 05:00:00,40.0,39.2,29.81,ESE,117,5.0,11.0,97,0.00,,---,0.31,0.00,VWS V14.01,2013-02-25 13:00:00,
2013-02-25 05:03:00,40.0,39.2,29.81,East,91,8.0,12.0,97,0.00,,---,0.31,0.00,VWS V14.01,2013-02-25 13:03:00,
2013-02-25 05:08:00,40.0,39.2,29.81,East,82,7.0,14.0,97,0.00,,---,0.31,0.00,VWS V14.01,2013-02-25 13:08:00,
2013-02-25 05:10:00,40.1,39.3,29.81,ESE,115,8.0,14.0,97,0.00,,---,0.31,0.00,VWS V14.01,2013-02-25 13:10:00,
2013-02-25 05:13:00,40.1,39.3,29.81,East,89,6.0,9.0,97,0.00,,---,0.31,0.00,VWS V14.01,2013-02-25 13:13:00,
2013-02-25 05:18:00,40.2,39.4,29.81,East,101,10.0,13.0,97,0.00,,---,0.31,0.00,VWS V14.01,2013-02-25 13:18:00,
2013-02-25 05:20:00,40.2,39.4,29.80,ESE,119,14.0,14.0,97,0.00,,---,0.31,0.00,VWS V14.01,2013-02-25 13:20:00,
2013-02-25 05:23:00,40.2,39.4,29.80,East,92,7.0,14.0,97,0.00,,---,0.31,0.00,VWS V14.01,2013-02-25 13:23:00,
2013-02-25 05:28:00,40.3,39.5,29.80,ESE,122,9.0,14.0,97,0.00,,---,0.31,0.00,VWS V14.01,2013-02-25 13:28:00,
2013-02-25 05:30:00,40.3,39.5,29.80,SSE,152,7.0,14.0,97,0.00,,---,0.31,0.00,VWS V14.01,2013-02-25 13:30:00,
2013-02-25 05:33:00,40.3,39.5,29.80,ESE,107,4.0,11.0,97,0.00,,---,0.31,0.00,VWS V14.01,2013-02-25 13:33:00,
2013-02-25 05:38:00,40.4,39.6,29.81,SE,146,9.0,17.0,97,0.00,,---,0.31,0.00,VWS V14.01,2013-02-25 13:38:00,
2013-02-25 05:40:00,40.4,39.6,29.80,ESE,107,9.0,17.0,97,0.00,,---,0.31,0.00,VWS V14.01,2013-02-25 13:40:00,
2013-02-25 05:43:00,40.4,39.6,29.80,ESE,119,4.0,15.0,97,0.00,,---,0.31,0.00,VWS V14.01,2013-02-25 13:43:00,
2013-02-25 05:48:00,40.4,39.6,29.80,ESE,119,7.0,15.0,97,0.00,,---,0.31,0.00,VWS V14.01,2013-02-25 13:48:00,
2013-02-25 05:50:00,40.5,39.7,29.80,SSE,167,13.0,15.0,97,0.00,,---,0.31,0.00,VWS V14.01,2013-02-25 13:50:00,
2013-02-25 05:53:00,40.4,39.6,29.80,ESE,119,3.0,16.0,97,0.00,,---,0.31,0.00,VWS V14.01,2013-02-25 13:53:00,
2013-02-25 05:58:00,40.5,39.7,29.80,SE,142,11.0,16.0,97,0.00,,---,0.31,0.00,VWS V14.01,2013-02-25 13:58:00,
2013-02-25 06:00:00,40.5,39.7,29.80,ESE,107,17.0,19.0,97,0.00,,---,0.31,0.00,VWS V14.01,2013-02-25 14:00:00,
2013-02-25 06:06:00,40.5,39.7,29.79,ESE,118,8.0,17.0,97,0.00,,---,0.31,0.00,VWS V14.01,2013-02-25 14:06:00,
2013-02-25 06:10:00,40.6,39.8,29.79,South,178,7.0,24.0,97,0.00,,---,0.31,0.00,VWS V14.01,2013-02-25 14:10:00,
2013-02-25 06:11:00,40.6,39.8,29.79,SE,129,9.0,24.0,97,0.00,,---,0.31,0.00,VWS V14.01,2013-02-25 14:11:00,
2013-02-25 06:16:00,40.6,39.8,29.78,ESE,114,11.0,15.0,97,0.00,,---,0.31,0.00,VWS V14.01,2013-02-25 14:16:00,
2013-02-25 06:20:00,40.7,39.7,29.79,SSE,155,9.0,18.0,96,0.00,,---,0.31,0.00,VWS V14.01,2013-02-25 14:20:00,
2013-02-25 06:21:00,40.7,39.7,29.79,SSE,155,9.0,18.0,96,0.00,,---,0.31,0.00,VWS V14.01,2013-02-25 14:21:00,
2013-02-25 06:26:00,40.7,39.7,29.78,ESE,113,14.0,17.0,96,0.00,,---,0.31,0.00,VWS V14.01,2013-02-25 14:26:00,
2013-02-25 06:30:00,40.7,39.7,29.79,SSE,149,8.0,22.0,96,0.00,,---,0.31,0.00,VWS V14.01,2013-02-25 14:30:00,
2013-02-25 06:31:00,40.7,39.7,29.79,South,189,7.0,8.0,96,0.00,,---,0.31,0.00,VWS V14.01,2013-02-25 14:31:00,
2013-02-25 06:40:00,40.8,39.8,29.78,ESE,109,4.0,16.0,96,0.00,,---,0.31,0.00,VWS V14.01,2013-02-25 14:40:00,
2013-02-25 06:41:00,40.8,39.8,29.78,ESE,109,4.0,16.0,96,0.00,,---,0.31,0.00,VWS V14.01,2013-02-25 14:41:00,
2013-02-25 06:48:00,40.7,39.4,29.78,South,170,4.0,20.0,95,0.00,,---,0.31,0.00,VWS V14.01,2013-02-25 14:48:00,
2013-02-25 06:50:00,40.8,39.5,29.78,SSE,158,5.0,20.0,95,0.00,,---,0.31,0.00,VWS V14.01,2013-02-25 14:50:00,
2013-02-25 06:53:00,40.8,39.5,29.78,ESE,115,9.0,16.0,95,0.00,,---,0.31,0.00,VWS V14.01,2013-02-25 14:53:00,
2013-02-25 06:58:00,40.8,39.5,29.78,SSE,153,6.0,16.0,95,0.00,,---,0.31,0.00,VWS V14.01,2013-02-25 14:58:00,
2013-02-25 07:00:00,40.7,39.4,29.78,SSE,150,11.0,16.0,95,0.00,,---,0.31,0.00,VWS V14.01,2013-02-25 15:00:00,
2013-02-25 07:03:00,40.7,39.4,29.78,SE,146,19.0,19.0,95,0.00,,---,0.31,0.00,VWS V14.01,2013-02-25 15:03:00,
2013-02-25 07:08:00,40.7,39.4,29.78,SE,137,12.0,19.0,95,0.01,,---,0.32,0.00,VWS V14.01,2013-02-25 15:08:00,
2013-02-25 07:10:00,40.7,39.4,29.78,South,171,6.0,19.0,95,0.01,,---,0.32,0.00,VWS V14.01,2013-02-25 15:10:00,
2013-02-25 07:13:00,40.7,39.4,29.78,ESE,121,16.0,17.0,95,0.01,,---,0.32,0.00,VWS V14.01,2013-02-25 15:13:00,
2013-02-25 07:18:00,40.7,39.4,29.78,SE,146,9.0,18.0,95,0.02,,---,0.33,0.00,VWS V14.01,2013-02-25 15:18:00,
2013-02-25 07:20:00,40.7,39.4,29.78,ESE,116,22.0,22.0,95,0.02,,---,0.34,0.00,VWS V14.01,2013-02-25 15:20:00,
2013-02-25 07:23:00,40.6,39.3,29.78,SSE,152,4.0,22.0,95,0.02,,---,0.34,0.00,VWS V14.01,2013-02-25 15:23:00,
2013-02-25 07:28:00,40.6,39.3,29.78,ESE,105,8.0,22.0,95,0.04,,---,0.35,0.00,VWS V14.01,2013-02-25 15:28:00,
2013-02-25 07:30:00,40.4,39.1,29.78,SSE,155,7.0,22.0,95,0.05,,---,0.36,0.00,VWS V14.01,2013-02-25 15:30:00,
2013-02-25 07:33:00,40.4,39.1,29.78,SE,143,7.0,16.0,95,0.05,,---,0.36,0.00,VWS V14.01,2013-02-25 15:33:00,
2013-02-25 07:38:00,40.3,39.0,29.78,SE,132,4.0,21.0,95,0.06,,---,0.37,0.00,VWS V14.01,2013-02-25 15:38:00,
2013-02-25 07:40:00,40.2,38.9,29.78,SE,130,7.0,21.0,95,0.06,,---,0.38,0.00,VWS V14.01,2013-02-25 15:40:00,
2013-02-25 07:43:00,40.2,38.9,29.78,East,92,6.0,15.0,95,0.06,,---,0.38,0.00,VWS V14.01,2013-02-25 15:43:00,
2013-02-25 07:48:00,40.1,39.0,29.78,SSE,162,8.0,19.0,96,0.06,,---,0.38,5.00,VWS V14.01,2013-02-25 15:48:00,
2013-02-25 07:50:00,40.1,39.0,29.78,SE,131,16.0,19.0,96,0.07,,---,0.39,0.00,VWS V14.01,2013-02-25 15:50:00,
2013-02-25 07:53:00,40.0,39.0,29.78,SSE,158,14.0,19.0,96,0.07,,---,0.39,0.00,VWS V14.01,2013-02-25 15:53:00,
2013-02-25 07:58:00,40.0,39.0,29.79,South,173,3.0,19.0,96,0.08,,---,0.39,0.00,VWS V14.01,2013-02-25 15:58:00,
2013-02-25 08:00:00,40.0,39.0,29.78,ESE,102,7.0,19.0,96,0.09,,---,0.40,5.00,VWS V14.01,2013-02-25 16:00:00,
2013-02-25 08:03:00,40.1,39.0,29.78,South,190,10.0,10.0,96,0.09,,---,0.40,5.00,VWS V14.01,2013-02-25 16:03:00,
2013-02-25 08:08:00,40.1,39.0,29.79,SSE,161,3.0,17.0,96,0.09,,---,0.41,7.00,VWS V14.01,2013-02-25 16:08:00,
2013-02-25 08:10:00,40.1,39.0,29.79,ESE,121,8.0,17.0,96,0.09,,---,0.41,7.00,VWS V14.01,2013-02-25 16:10:00,
2013-02-25 08:13:00,40.1,39.0,29.79,SSE,165,7.0,9.0,96,0.09,,---,0.41,11.00,VWS V14.01,2013-02-25 16:13:00,
2013-02-25 08:18:00,40.2,39.2,29.79,SSE,163,3.0,9.0,96,0.09,,---,0.41,25.00,VWS V14.01,2013-02-25 16:18:00,
2013-02-25 08:20:00,40.2,39.2,29.79,SSW,197,0.0,9.0,96,0.09,,---,0.41,32.00,VWS V14.01,2013-02-25 16:20:00,
2013-02-25 08:23:00,40.2,39.2,29.79,South,179,3.0,8.0,96,0.07,,---,0.41,32.00,VWS V14.01,2013-02-25 16:23:00,
2013-02-25 08:28:00,40.2,39.2,29.79,SSE,148,3.0,10.0,96,0.08,,---,0.42,30.00,VWS V14.01,2013-02-25 16:28:00,
2013-02-25 08:30:00,40.2,39.2,29.79,ENE,75,3.0,10.0,96,0.08,,---,0.42,37.00,VWS V14.01,2013-02-25 16:30:00,
2013-02-25 08:33:00,40.2,39.2,29.80,SE,146,5.0,7.0,96,0.06,,---,0.42,40.00,VWS V14.01,2013-02-25 16:33:00,
2013-02-25 08:38:00,40.3,39.2,29.80,SE,146,4.0,7.0,96,0.06,,---,0.42,51.00,VWS V14.01,2013-02-25 16:38:00,
2013-02-25 08:40:00,40.3,39.2,29.80,South,186,4.0,7.0,96,0.06,,---,0.42,44.00,VWS V14.01,2013-02-25 16:40:00,
2013-02-25 08:43:00,40.4,39.3,29.80,South,182,3.0,5.0,96,0.04,,---,0.42,44.00,VWS V14.01,2013-02-25 16:43:00,
2013-02-25 08:48:00,40.4,39.6,29.80,SSW,205,0.0,8.0,97,0.04,,---,0.42,51.00,VWS V14.01,2013-02-25 16:48:00,
2013-02-25 08:50:00,40.5,39.7,29.80,SW,230,1.0,8.0,97,0.04,,---,0.42,58.00,VWS V14.01,2013-02-25 16:50:00,
2013-02-25 08:53:00,40.5,39.7,29.81,WSW,248,7.0,9.0,97,0.03,,---,0.42,56.00,VWS V14.01,2013-02-25 16:53:00,
2013-02-25 08:58:00,40.6,39.5,29.81,West,275,0.0,9.0,96,0.04,,---,0.43,63.00,VWS V14.01,2013-02-25 16:58:00,
2013-02-25 09:00:00,40.6,39.5,29.81,WNW,288,1.0,9.0,96,0.04,,---,0.43,63.00,VWS V14.01,2013-02-25 17:00:00,
2013-02-25 09:03:00,40.7,39.7,29.81,WSW,242,3.0,4.0,96,0.02,,---,0.43,62.00,VWS V14.01,2013-02-25 17:03:00,
2013-02-25 09:08:00,40.7,39.7,29.82,WSW,254,2.0,7.0,96,0.02,,---,0.43,65.00,VWS V14.01,2013-02-25 17:08:00,
2013-02-25 09:10:00,40.8,39.8,29.82,WSW,254,0.0,7.0,96,0.02,,---,0.43,62.00,VWS V14.01,2013-02-25 17:10:00,
2013-02-25 09:13:00,40.8,39.8,29.82,SW,230,4.0,8.0,96,0.02,,---,0.43,60.00,VWS V14.01,2013-02-25 17:13:00,
2013-02-25 09:18:00,40.9,39.8,29.82,South,169,3.0,8.0,96,0.02,,---,0.43,40.00,VWS V14.01,2013-02-25 17:18:00,
2013-02-25 09:20:00,41.0,40.0,29.82,West,275,5.0,8.0,96,0.02,,---,0.43,40.00,VWS V14.01,2013-02-25 17:20:00,
2013-02-25 09:23:00,41.0,40.0,29.82,WNW,294,6.0,9.0,96,0.03,,---,0.44,37.00,VWS V14.01,2013-02-25 17:23:00,
2013-02-25 09:28:00,41.0,40.0,29.82,West,275,2.0,9.0,96,0.03,,---,0.44,98.00,VWS V14.01,2013-02-25 17:28:00,
2013-02-25 09:30:00,41.1,40.0,29.82,WSW,258,3.0,9.0,96,0.03,,---,0.44,93.00,VWS V14.01,2013-02-25 17:30:00,
2013-02-25 09:33:00,41.2,40.2,29.82,West,279,4.0,6.0,96,0.02,,---,0.44,76.00,VWS V14.01,2013-02-25 17:33:00,
2013-02-25 09:38:00,41.3,40.2,29.82,NNW,332,6.0,14.0,96,0.02,,---,0.44,86.00,VWS V14.01,2013-02-25 17:38:00,
2013-02-25 09:40:00,41.4,40.3,29.82,West,262,9.0,14.0,96,0.02,,---,0.44,113.00,VWS V14.01,2013-02-25 17:40:00,
2013-02-25 09:43:00,41.4,40.3,29.82,West,274,6.0,11.0,96,0.02,,---,0.44,84.00,VWS V14.01,2013-02-25 17:43:00,
2013-02-25 09:48:00,41.5,40.2,29.82,NNW,337,0.0,11.0,95,0.02,,---,0.44,88.00,VWS V14.01,2013-02-25 17:48:00,
2013-02-25 09:50:00,41.6,40.3,29.83,WSW,250,3.0,11.0,95,0.02,,---,0.44,91.00,VWS V14.01,2013-02-25 17:50:00,
2013-02-25 09:53:00,41.6,40.3,29.82,West,261,1.0,5.0,95,0.02,,---,0.44,97.00,VWS V14.01,2013-02-25 17:53:00,
2013-02-25 09:58:00,41.8,40.5,29.83,West,274,5.0,12.0,95,0.02,,---,0.44,72.00,VWS V14.01,2013-02-25 17:58:00,
2013-02-25 10:00:00,41.8,40.5,29.83,West,275,4.0,15.0,95,0.02,,---,0.44,127.00,VWS V14.01,2013-02-25 18:00:00,
2013-02-25 10:03:00,41.9,40.6,29.84,WNW,285,14.0,14.0,95,0.02,,---,0.44,148.00,VWS V14.01,2013-02-25 18:03:00,
2013-02-25 10:08:00,42.2,40.6,29.84,WNW,284,15.0,19.0,94,0.02,,---,0.44,218.00,VWS V14.01,2013-02-25 18:08:00,
2013-02-25 10:10:00,42.5,40.9,29.85,West,278,4.0,19.0,94,0.02,,---,0.44,169.00,VWS V14.01,2013-02-25 18:10:00,
2013-02-25 10:13:00,42.7,40.8,29.85,West,261,13.0,21.0,93,0.02,,---,0.44,144.00,VWS V14.01,2013-02-25 18:13:00,
2013-02-25 10:18:00,42.7,40.5,29.85,NW,315,5.0,21.0,92,0.02,,---,0.44,192.00,VWS V14.01,2013-02-25 18:18:00,
2013-02-25 10:20:00,42.8,40.6,29.86,West,269,9.0,21.0,92,0.02,,---,0.44,155.00,VWS V14.01,2013-02-25 18:20:00,
2013-02-25 10:23:00,42.8,40.6,29.86,West,263,6.0,22.0,92,0.01,,---,0.44,146.00,VWS V14.01,2013-02-25 18:23:00,
2013-02-25 10:28:00,42.9,40.5,29.86,West,279,26.0,26.0,91,0.01,,---,0.44,155.00,VWS V14.01,2013-02-25 18:28:00,
2013-02-25 10:30:00,42.8,40.1,29.86,WNW,284,7.0,26.0,90,0.01,,---,0.44,113.00,VWS V14.01,2013-02-25 18:30:00,
2013-02-25 10:33:00,42.8,40.1,29.87,NNW,329,6.0,16.0,90,0.00,,---,0.44,139.00,VWS V14.01,2013-02-25 18:33:00,
2013-02-25 10:38:00,42.8,40.1,29.87,WNW,286,12.0,24.0,90,0.00,,---,0.44,118.00,VWS V14.01,2013-02-25 18:38:00,
2013-02-25 10:40:00,42.7,39.7,29.87,West,265,8.0,24.0,89,0.00,,---,0.44,109.00,VWS V14.01,2013-02-25 18:40:00,
2013-02-25 10:43:00,42.7,39.7,29.88,WNW,298,6.0,16.0,89,0.00,,---,0.44,105.00,VWS V14.01,2013-02-25 18:43:00,
2013-02-25 10:48:00,42.8,39.5,29.88,WSW,247,7.0,19.0,88,0.00,,---,0.44,93.00,VWS V14.01,2013-02-25 18:48:00,
2013-02-25 10:50:00,42.9,39.3,29.88,WSW,240,5.0,19.0,87,0.00,,---,0.44,90.00,VWS V14.01,2013-02-25 18:50:00,
2013-02-25 10:53:00,43.0,39.4,29.89,WNW,282,14.0,20.0,87,0.00,,---,0.44,97.00,VWS V14.01,2013-02-25 18:53:00,
2013-02-25 10:58:00,43.1,39.2,29.90,NW,306,12.0,23.0,86,0.00,,---,0.44,120.00,VWS V14.01,2013-02-25 18:58:00,
2013-02-25 11:00:00,43.2,39.0,29.90,West,264,11.0,23.0,85,0.00,,---,0.44,104.00,VWS V14.01,2013-02-25 19:00:00,
2013-02-25 11:03:00,43.2,39.0,29.90,WSW,257,13.0,16.0,85,0.00,,---,0.44,123.00,VWS V14.01,2013-02-25 19:03:00,
2013-02-25 11:08:00,43.3,38.8,29.90,WNW,287,6.0,16.0,84,0.00,,---,0.44,137.00,VWS V14.01,2013-02-25 19:08:00,
2013-02-25 11:10:00,43.4,38.6,29.90,West,281,8.0,19.0,83,0.00,,---,0.44,132.00,VWS V14.01,2013-02-25 19:10:00,
2013-02-25 11:13:00,43.4,38.6,29.91,WNW,290,2.0,13.0,83,0.00,,---,0.44,128.00,VWS V14.01,2013-02-25 19:13:00,
2013-02-25 11:18:00,43.6,38.5,29.91,West,275,9.0,13.0,82,0.00,,---,0.44,153.00,VWS V14.01,2013-02-25 19:18:00,
2013-02-25 11:20:00,43.6,38.5,29.91,NW,318,9.0,18.0,82,0.00,,---,0.44,139.00,VWS V14.01,2013-02-25 19:20:00,
2013-02-25 11:23:00,43.6,38.5,29.91,West,279,9.0,12.0,82,0.00,,---,0.44,135.00,VWS V14.01,2013-02-25 19:23:00,
2013-02-25 11:28:00,43.7,38.6,29.92,West,261,4.0,13.0,82,0.00,,---,0.44,179.00,VWS V14.01,2013-02-25 19:28:00,
2013-02-25 11:30:00,43.8,38.7,29.92,West,279,9.0,14.0,82,0.00,,---,0.44,190.00,VWS V14.01,2013-02-25 19:30:00,
2013-02-25 11:33:00,43.8,38.4,29.92,WNW,284,5.0,12.0,81,0.00,,---,0.44,193.00,VWS V14.01,2013-02-25 19:33:00,
2013-02-25 11:38:00,43.9,38.1,29.92,WSW,238,17.0,22.0,80,0.00,,---,0.44,172.00,VWS V14.01,2013-02-25 19:38:00,
2013-02-25 11:40:00,43.9,37.5,29.92,WNW,284,25.0,25.0,78,0.00,,---,0.44,171.00,VWS V14.01,2013-02-25 19:40:00,
2013-02-25 11:43:00,44.0,37.3,29.92,WNW,286,7.0,26.0,77,0.00,,---,0.44,172.00,VWS V14.01,2013-02-25 19:43:00,
2013-02-25 11:48:00,44.2,37.1,29.92,NW,321,4.0,26.0,76,0.00,,---,0.44,193.00,VWS V14.01,2013-02-25 19:48:00,
2013-02-25 11:50:00,44.2,36.8,29.92,NNW,328,10.0,26.0,75,0.00,,---,0.44,193.00,VWS V14.01,2013-02-25 19:50:00,
2013-02-25 11:53:00,44.3,36.5,29.92,WNW,303,11.0,19.0,74,0.00,,---,0.44,193.00,VWS V14.01,2013-02-25 19:53:00,
2013-02-25 11:58:00,44.4,36.7,29.92,WNW,296,10.0,19.0,74,0.00,,---,0.44,193.00,VWS V14.01,2013-02-25 19:58:00,
2013-02-25 12:00:00,44.5,36.4,29.93,West,277,12.0,19.0,73,0.00,,---,0.44,186.00,VWS V14.01,2013-02-25 20:00:00,
2013-02-25 12:03:00,44.5,36.7,29.93,WNW,287,7.0,13.0,74,0.00,,---,0.44,179.00,VWS V14.01,2013-02-25 20:03:00,
2013-02-25 12:08:00,44.7,36.9,29.93,West,265,8.0,19.0,74,0.00,,---,0.44,165.00,VWS V14.01,2013-02-25 20:08:00,
2013-02-25 12:10:00,44.7,37.3,29.94,NW,326,6.0,19.0,75,0.00,,---,0.44,139.00,VWS V14.01,2013-02-25 20:10:00,
2013-02-25 12:13:00,44.7,36.9,29.94,WNW,284,7.0,11.0,74,0.00,,---,0.44,135.00,VWS V14.01,2013-02-25 20:13:00,
2013-02-25 12:18:00,44.7,36.9,29.94,WNW,297,5.0,16.0,74,0.00,,---,0.44,134.00,VWS V14.01,2013-02-25 20:18:00,
2013-02-25 12:20:00,44.7,36.6,29.94,West,276,6.0,16.0,73,0.00,,---,0.44,153.00,VWS V14.01,2013-02-25 20:20:00,
2013-02-25 12:23:00,44.7,36.6,29.95,NNW,344,11.0,13.0,73,0.00,,---,0.44,181.00,VWS V14.01,2013-02-25 20:23:00,
2013-02-25 12:28:00,44.7,36.2,29.95,WNW,292,8.0,15.0,72,0.00,,---,0.44,225.00,VWS V14.01,2013-02-25 20:28:00,
2013-02-25 12:30:00,44.8,36.3,29.95,WNW,284,10.0,17.0,72,0.00,,---,0.44,213.00,VWS V14.01,2013-02-25 20:30:00,
2013-02-25 12:33:00,44.8,36.3,29.95,NNW,345,7.0,13.0,72,0.00,,---,0.44,221.00,VWS V14.01,2013-02-25 20:33:00,
2013-02-25 12:38:00,45.0,36.5,29.95,NW,308,6.0,15.0,72,0.00,,---,0.44,225.00,VWS V14.01,2013-02-25 20:38:00,
2013-02-25 12:40:00,45.0,36.5,29.95,WNW,296,6.0,16.0,72,0.00,,---,0.44,227.00,VWS V14.01,2013-02-25 20:40:00,
2013-02-25 12:43:00,45.1,36.6,29.95,West,281,8.0,14.0,72,0.00,,---,0.44,239.00,VWS V14.01,2013-02-25 20:43:00,
2013-02-25 12:48:00,45.3,36.8,29.95,WNW,290,11.0,14.0,72,0.00,,---,0.44,216.00,VWS V14.01,2013-02-25 20:48:00,
2013-02-25 12:50:00,45.3,36.8,29.95,West,281,11.0,17.0,72,0.00,,---,0.44,230.00,VWS V14.01,2013-02-25 20:50:00,
2013-02-25 12:53:00,45.3,36.5,29.96,WNW,296,8.0,19.0,71,0.00,,---,0.44,248.00,VWS V14.01,2013-02-25 20:53:00,
2013-02-25 13:00:00,44.8,33.8,30.00,NW,311,5.0,23.0,65,0.00,,---,0.44,100.00,VWS V14.01,2013-02-25 21:00:00,
2013-02-25 13:01:00,45.3,35.7,29.96,WNW,286,6.0,13.0,69,0.00,,---,0.44,214.00,VWS V14.01,2013-02-25 21:01:00,
2013-02-25 13:08:00,45.3,36.1,29.96,West,274,7.0,17.0,70,0.00,,---,0.44,195.00,VWS V14.01,2013-02-25 21:08:00,
2013-02-25 13:10:00,44.7,33.7,30.00,West,277,11.0,17.0,65,0.00,,---,0.44,90.00,VWS V14.01,2013-02-25 21:10:00,
2013-02-25 13:13:00,45.2,35.7,29.97,WSW,249,4.0,18.0,69,0.00,,---,0.44,213.00,VWS V14.01,2013-02-25 21:13:00,
2013-02-25 13:18:00,45.4,35.8,29.97,WNW,289,12.0,18.0,69,0.00,,---,0.44,229.00,VWS V14.01,2013-02-25 21:18:00,
2013-02-25 13:20:00,44.7,33.7,30.01,WNW,300,9.0,20.0,65,0.00,,---,0.44,56.00,VWS V14.01,2013-02-25 21:20:00,
2013-02-25 13:23:00,45.5,35.9,29.97,WNW,291,8.0,9.0,69,0.00,,---,0.44,200.00,VWS V14.01,2013-02-25 21:23:00,
2013-02-25 13:28:00,45.5,35.2,29.98,WNW,289,10.0,19.0,67,0.00,,---,0.44,181.00,VWS V14.01,2013-02-25 21:28:00,
2013-02-25 13:30:00,44.7,32.9,30.01,NW,319,5.0,21.0,63,0.00,,---,0.44,53.00,VWS V14.01,2013-02-25 21:30:00,
2013-02-25 13:33:00,45.4,34.7,29.98,West,277,13.0,13.0,66,0.00,,---,0.44,158.00,VWS V14.01,2013-02-25 21:33:00,
2013-02-25 13:38:00,45.4,34.3,29.98,WNW,294,9.0,20.0,65,0.00,,---,0.44,139.00,VWS V14.01,2013-02-25 21:38:00,
2013-02-25 13:40:00,44.7,33.3,30.01,NW,325,9.0,16.0,64,0.00,,---,0.44,83.00,VWS V14.01,2013-02-25 21:40:00,
2013-02-25 13:43:00,45.2,33.8,29.98,WNW,289,10.0,22.0,64,0.00,,---,0.44,120.00,VWS V14.01,2013-02-25 21:43:00,
2013-02-25 13:49:00,45.0,33.6,29.99,West,279,4.0,18.0,64,0.00,,---,0.44,102.00,VWS V14.01,2013-02-25 21:49:00,
2013-02-25 13:50:00,45.0,33.2,30.02,WNW,284,11.0,23.0,63,0.00,,---,0.44,84.00,VWS V14.01,2013-02-25 21:50:00,
2013-02-25 13:54:00,44.9,33.9,29.99,NNW,333,5.0,17.0,65,0.00,,---,0.44,93.00,VWS V14.01,2013-02-25 21:54:00,
2013-02-25 13:59:00,44.8,33.4,29.99,WNW,292,8.0,23.0,64,0.00,,---,0.44,93.00,VWS V14.01,2013-02-25 21:59:00,
2013-02-25 14:00:00,45.4,33.6,30.02,West,264,10.0,21.0,63,0.00,,---,0.44,206.00,VWS V14.01,2013-02-25 22:00:00,
2013-02-25 14:04:00,44.8,33.8,30.00,West,261,8.0,15.0,65,0.00,,---,0.44,93.00,VWS V14.01,2013-02-25 22:04:00,
2013-02-25 14:09:00,44.7,33.7,30.00,WNW,290,9.0,17.0,65,0.00,,---,0.44,93.00,VWS V14.01,2013-02-25 22:09:00,
2013-02-25 14:10:00,45.5,33.7,30.03,West,271,12.0,22.0,63,0.00,,---,0.44,141.00,VWS V14.01,2013-02-25 22:10:00,
2013-02-25 14:14:00,44.7,33.7,30.00,NW,309,2.0,15.0,65,0.00,,---,0.44,83.00,VWS V14.01,2013-02-25 22:14:00,
2013-02-25 14:19:00,44.7,33.3,30.01,West,270,10.0,20.0,64,0.00,,---,0.44,62.00,VWS V14.01,2013-02-25 22:19:00,
2013-02-25 14:20:00,45.4,33.6,30.04,NNW,327,3.0,18.0,63,0.00,,---,0.44,120.00,VWS V14.01,2013-02-25 22:20:00,
2013-02-25 14:24:00,44.6,33.2,30.01,West,278,15.0,15.0,64,0.00,,---,0.44,51.00,VWS V14.01,2013-02-25 22:24:00,
2013-02-25 14:29:00,44.7,32.9,30.01,West,274,20.0,21.0,63,0.00,,---,0.44,56.00,VWS V14.01,2013-02-25 22:29:00,
2013-02-25 14:30:00,45.5,33.7,30.04,NW,306,10.0,18.0,63,0.00,,---,0.44,144.00,VWS V14.01,2013-02-25 22:30:00,
2013-02-25 14:34:00,44.7,32.9,30.01,NW,309,5.0,15.0,63,0.00,,---,0.44,56.00,VWS V14.01,2013-02-25 22:34:00,
2013-02-25 14:39:00,44.7,33.3,30.01,WNW,296,11.0,16.0,64,0.00,,---,0.44,79.00,VWS V14.01,2013-02-25 22:39:00,
2013-02-25 14:40:00,45.9,33.6,30.04,West,272,9.0,14.0,62,0.00,,---,0.44,216.00,VWS V14.01,2013-02-25 22:40:00,
2013-02-25 14:44:00,44.8,33.8,30.02,WSW,256,12.0,12.0,65,0.00,,---,0.44,146.00,VWS V14.01,2013-02-25 22:44:00,
2013-02-25 14:49:00,44.9,33.1,30.02,West,272,14.0,23.0,63,0.00,,---,0.44,86.00,VWS V14.01,2013-02-25 22:49:00,
2013-02-25 14:50:00,46.9,33.8,30.05,NW,313,8.0,16.0,60,0.00,,---,0.44,190.00,VWS V14.01,2013-02-25 22:50:00,
2013-02-25 14:54:00,45.0,33.6,30.02,NW,310,9.0,16.0,64,0.00,,---,0.44,104.00,VWS V14.01,2013-02-25 22:54:00,
2013-02-25 14:59:00,45.2,33.4,30.02,WNW,284,14.0,21.0,63,0.00,,---,0.44,199.00,VWS V14.01,2013-02-25 22:59:00,
2013-02-25 15:00:00,46.6,33.5,30.05,WNW,286,9.0,12.0,60,0.00,,---,0.44,144.00,VWS V14.01,2013-02-25 23:00:00,
2013-02-25 15:04:00,45.6,33.3,30.03,West,276,12.0,22.0,62,0.00,,---,0.44,292.00,VWS V14.01,2013-02-25 23:04:00,
2013-02-25 15:09:00,45.6,34.1,30.03,West,275,8.0,22.0,64,0.00,,---,0.44,146.00,VWS V14.01,2013-02-25 23:09:00,
2013-02-25 15:10:00,46.2,33.5,30.06,WSW,257,7.0,13.0,61,0.00,,---,0.44,81.00,VWS V14.01,2013-02-25 23:10:00,
2013-02-25 15:14:00,45.5,33.7,30.03,WNW,298,4.0,17.0,63,0.00,,---,0.44,135.00,VWS V14.01,2013-02-25 23:14:00,
2013-02-25 15:20:00,45.5,33.7,30.04,WSW,257,13.0,18.0,63,0.00,,---,0.44,118.00,VWS V14.01,2013-02-25 23:20:00,
2013-02-25 15:25:00,45.4,34.3,30.04,NNW,332,3.0,18.0,65,0.00,,---,0.44,120.00,VWS V14.01,2013-02-25 23:25:00,
2013-02-25 15:30:00,45.5,34.0,30.04,West,277,15.0,18.0,64,0.00,,---,0.44,134.00,VWS V14.01,2013-02-25 23:30:00,
2013-02-25 15:35:00,45.6,33.8,30.04,West,278,8.0,12.0,63,0.00,,---,0.44,146.00,VWS V14.01,2013-02-25 23:35:00,
2013-02-25 15:40:00,45.8,33.5,30.04,WNW,300,3.0,14.0,62,0.00,,---,0.44,202.00,VWS V14.01,2013-02-25 23:40:00,
2013-02-25 15:45:00,46.4,33.3,30.05,WNW,292,8.0,16.0,60,0.00,,---,0.44,276.00,VWS V14.01,2013-02-25 23:45:00,
2013-02-25 15:50:00,47.0,34.3,30.05,WNW,282,11.0,16.0,61,0.00,,---,0.44,330.00,VWS V14.01,2013-02-25 23:50:00,
2013-02-25 15:55:00,46.8,34.1,30.05,WNW,300,8.0,12.0,61,0.00,,---,0.44,197.00,VWS V14.01,2013-02-25 23:55:00,
2013-02-25 16:00:00,46.6,33.9,30.05,NW,323,7.0,12.0,61,0.00,,---,0.44,155.00,VWS V14.01,2013-02-26 00:00:00,
2013-02-25 16:05:00,46.4,33.7,30.05,WNW,292,6.0,12.0,61,0.00,,---,0.44,109.00,VWS V14.01,2013-02-26 00:05:00,
2013-02-25 16:10:00,46.3,33.6,30.05,West,273,13.0,13.0,61,0.00,,---,0.44,77.00,VWS V14.01,2013-02-26 00:10:00,
2013-02-25 16:15:00,46.2,33.5,30.06,West,269,8.0,9.0,61,0.00,,---,0.44,123.00,VWS V14.01,2013-02-26 00:15:00,
2013-02-25 16:20:00,46.3,33.6,30.06,NNW,340,1.0,9.0,61,0.00,,---,0.44,181.00,VWS V14.01,2013-02-26 00:20:00,
2013-02-25 16:25:00,46.8,34.1,30.06,WNW,303,1.0,6.0,61,0.00,,---,0.44,237.00,VWS V14.01,2013-02-26 00:25:00,
2013-02-25 16:30:00,47.4,34.2,30.06,NW,310,6.0,8.0,60,0.00,,---,0.44,230.00,VWS V14.01,2013-02-26 00:30:00,
2013-02-25 16:35:00,47.6,34.0,30.06,NW,315,3.0,6.0,59,0.00,,---,0.44,209.00,VWS V14.01,2013-02-26 00:35:00,
2013-02-25 16:40:00,47.7,34.1,30.06,West,279,5.0,8.0,59,0.00,,---,0.44,186.00,VWS V14.01,2013-02-26 00:40:00,
2013-02-25 16:45:00,47.9,32.5,30.07,WNW,284,9.0,14.0,55,0.00,,---,0.44,156.00,VWS V14.01,2013-02-26 00:45:00,
2013-02-25 16:50:00,47.6,32.2,30.07,West,264,8.0,15.0,55,0.00,,---,0.44,121.00,VWS V14.01,2013-02-26 00:50:00,
2013-02-25 16:55:00,47.3,32.0,30.07,West,281,5.0,12.0,55,0.00,,---,0.44,97.00,VWS V14.01,2013-02-26 00:55:00,
2013-02-25 17:00:00,47.0,32.1,30.07,WNW,298,2.0,12.0,56,0.00,,---,0.44,83.00,VWS V14.01,2013-02-26 01:00:00,
2013-02-25 17:05:00,46.9,32.0,30.07,West,275,5.0,14.0,56,0.00,,---,0.44,58.00,VWS V14.01,2013-02-26 01:05:00,
2013-02-25 17:10:00,46.6,32.2,30.07,NW,313,3.0,14.0,57,0.00,,---,0.44,26.00,VWS V14.01,2013-02-26 01:10:00,
2013-02-25 17:15:00,46.3,32.3,30.08,West,267,5.0,11.0,58,0.00,,---,0.44,46.00,VWS V14.01,2013-02-26 01:15:00,
2013-02-25 17:20:00,46.0,32.1,30.07,West,276,0.0,11.0,58,0.00,,---,0.44,19.00,VWS V14.01,2013-02-26 01:20:00,
2013-02-25 17:25:00,45.8,31.9,30.08,West,275,2.0,11.0,58,0.00,,---,0.44,16.00,VWS V14.01,2013-02-26 01:25:00,
2013-02-25 17:30:00,45.6,31.7,30.08,WNW,288,1.0,11.0,58,0.00,,---,0.44,14.00,VWS V14.01,2013-02-26 01:30:00,
2013-02-25 17:35:00,45.3,31.8,30.08,West,277,3.0,8.0,59,0.00,,---,0.44,11.00,VWS V14.01,2013-02-26 01:35:00,
2013-02-25 17:40:00,45.1,32.1,30.08,West,273,3.0,9.0,60,0.00,,---,0.44,7.00,VWS V14.01,2013-02-26 01:40:00,
2013-02-25 17:45:00,44.9,31.9,30.09,NNW,335,0.0,9.0,60,0.00,,---,0.44,0.00,VWS V14.01,2013-02-26 01:45:00,
2013-02-25 17:50:00,44.7,32.1,30.09,WNW,288,5.0,9.0,61,0.00,,---,0.44,0.00,VWS V14.01,2013-02-26 01:50:00,
2013-02-25 17:55:00,44.5,31.9,30.09,NW,306,2.0,7.0,61,0.00,,---,0.44,0.00,VWS V14.01,2013-02-26 01:55:00,
2013-02-25 18:00:00,44.3,31.7,30.09,NW,326,1.0,7.0,61,0.00,,---,0.44,0.00,VWS V14.01,2013-02-26 02:00:00,
2013-02-25 18:05:00,44.2,32.0,30.09,NW,326,0.0,2.0,62,0.00,,---,0.44,0.00,VWS V14.01,2013-02-26 02:05:00,
2013-02-25 18:10:00,44.1,31.9,30.10,NW,317,0.0,3.0,62,0.00,,---,0.44,0.00,VWS V14.01,2013-02-26 02:10:00,
2013-02-25 18:15:00,43.9,31.7,30.10,WNW,283,4.0,6.0,62,0.00,,---,0.44,0.00,VWS V14.01,2013-02-26 02:15:00,
2013-02-25 18:20:00,43.8,31.6,30.10,West,275,1.0,6.0,62,0.00,,---,0.44,0.00,VWS V14.01,2013-02-26 02:20:00,
2013-02-25 18:25:00,43.7,32.0,30.11,WSW,246,0.0,6.0,63,0.00,,---,0.44,0.00,VWS V14.01,2013-02-26 02:25:00,
2013-02-25 18:30:00,43.6,31.9,30.11,WSW,240,0.0,6.0,63,0.00,,---,0.44,0.00,VWS V14.01,2013-02-26 02:30:00,
2013-02-25 18:35:00,43.4,32.0,30.11,West,259,0.0,4.0,64,0.00,,---,0.44,0.00,VWS V14.01,2013-02-26 02:35:00,
2013-02-25 18:40:00,43.3,33.5,30.12,North,351,0.0,4.0,68,0.00,,---,0.44,0.00,VWS V14.01,2013-02-26 02:40:00,
2013-02-25 18:45:00,42.6,33.9,30.12,North,355,0.0,3.0,71,0.00,,---,0.44,0.00,VWS V14.01,2013-02-26 02:45:00,
2013-02-25 18:50:00,41.9,33.9,30.12,North,355,0.0,3.0,73,0.00,,---,0.44,0.00,VWS V14.01,2013-02-26 02:50:00,
2013-02-25 18:55:00,41.1,33.8,30.12,North,355,0.0,1.0,75,0.00,,---,0.44,0.00,VWS V14.01,2013-02-26 02:55:00,
2013-02-25 19:00:00,40.5,33.9,30.13,North,355,0.0,2.0,77,0.00,,---,0.44,0.00,VWS V14.01,2013-02-26 03:00:00,
2013-02-25 19:05:00,40.1,34.1,30.13,North,355,0.0,1.0,79,0.00,,---,0.44,0.00,VWS V14.01,2013-02-26 03:05:00,
2013-02-25 19:10:00,39.7,33.7,30.13,North,355,0.0,1.0,79,0.00,,---,0.44,0.00,VWS V14.01,2013-02-26 03:10:00,
2013-02-25 19:15:00,39.4,34.1,30.13,North,355,1.0,2.0,81,0.00,,---,0.44,0.00,VWS V14.01,2013-02-26 03:15:00,
2013-02-25 19:20:00,39.1,33.8,30.14,North,355,0.0,2.0,81,0.00,,---,0.44,0.00,VWS V14.01,2013-02-26 03:20:00,
2013-02-25 19:25:00,38.8,33.8,30.14,North,355,1.0,2.0,82,0.00,,---,0.44,0.00,VWS V14.01,2013-02-26 03:25:00,
2013-02-25 19:30:00,38.7,33.7,30.15,North,355,0.0,3.0,82,0.00,,---,0.44,0.00,VWS V14.01,2013-02-26 03:30:00,
2013-02-25 19:35:00,38.5,33.8,30.15,North,355,0.0,1.0,83,0.00,,---,0.44,0.00,VWS V14.01,2013-02-26 03:35:00,
2013-02-25 19:40:00,38.4,33.7,30.15,NNW,344,0.0,2.0,83,0.00,,---,0.44,0.00,VWS V14.01,2013-02-26 03:40:00,
2013-02-25 19:45:00,38.5,33.8,30.16,NNW,344,0.0,1.0,83,0.00,,---,0.44,0.00,VWS V14.01,2013-02-26 03:45:00,
2013-02-25 19:50:00,38.4,34.0,30.16,NNW,344,0.0,1.0,84,0.00,,---,0.44,0.00,VWS V14.01,2013-02-26 03:50:00,
2013-02-25 19:55:00,38.2,34.1,30.16,NNW,344,0.0,0.0,85,0.00,,---,0.44,0.00,VWS V14.01,2013-02-26 03:55:00,
2013-02-25 20:00:00,38.0,33.9,30.16,NNW,344,0.0,0.0,85,0.00,,---,0.44,0.00,VWS V14.01,2013-02-26 04:00:00,
2013-02-25 20:05:00,37.8,33.7,30.17,NNW,344,0.0,1.0,85,0.00,,---,0.44,0.00,VWS V14.01,2013-02-26 04:05:00,
2013-02-25 20:10:00,37.7,33.9,30.17,NNW,344,0.0,2.0,86,0.00,,---,0.44,0.00,VWS V14.01,2013-02-26 04:10:00,
2013-02-25 20:15:00,37.5,33.7,30.17,NNW,344,0.0,1.0,86,0.00,,---,0.44,0.00,VWS V14.01,2013-02-26 04:15:00,
2013-02-25 20:20:00,37.4,35.3,30.18,NNW,344,0.0,2.0,92,0.00,,---,0.44,0.00,VWS V14.01,2013-02-26 04:20:00,
2013-02-25 20:25:00,37.3,33.8,30.18,NNW,345,0.0,2.0,87,0.00,,---,0.44,0.00,VWS V14.01,2013-02-26 04:25:00,
2013-02-25 20:30:00,37.4,33.9,30.18,NNW,345,2.0,2.0,87,0.00,,---,0.44,0.00,VWS V14.01,2013-02-26 04:30:00,
2013-02-25 20:35:00,37.5,34.0,30.18,NNW,345,0.0,2.0,87,0.00,,---,0.44,0.00,VWS V14.01,2013-02-26 04:35:00,
2013-02-25 20:40:00,37.5,34.0,30.18,NNW,345,0.0,2.0,87,0.00,,---,0.44,0.00,VWS V14.01,2013-02-26 04:40:00,
2013-02-25 20:45:00,37.5,34.0,30.19,NNW,345,0.0,0.0,87,0.00,,---,0.44,0.00,VWS V14.01,2013-02-26 04:45:00,
2013-02-25 20:50:00,37.4,33.9,30.19,NNW,345,1.0,2.0,87,0.00,,---,0.44,0.00,VWS V14.01,2013-02-26 04:50:00,
2013-02-25 20:55:00,37.4,33.9,30.19,NNW,345,0.0,1.0,87,0.00,,---,0.44,0.00,VWS V14.01,2013-02-26 04:55:00,
2013-02-25 21:00:00,37.4,33.9,30.20,NNW,345,1.0,2.0,87,0.00,,---,0.44,0.00,VWS V14.01,2013-02-26 05:00:00,
2013-02-25 21:01:00,37.4,33.9,30.20,NNW,345,0.0,2.0,87,0.00,,---,0.44,0.00,VWS V14.01,2013-02-26 05:01:00,
2013-02-25 21:08:00,37.1,33.9,30.20,NNW,345,0.0,2.0,88,0.00,,---,0.44,0.00,VWS V14.01,2013-02-26 05:08:00,
2013-02-25 21:10:00,37.0,33.8,30.20,NNW,345,0.0,2.0,88,0.00,,---,0.44,0.00,VWS V14.01,2013-02-26 05:10:00,
2013-02-25 21:15:00,36.8,33.6,30.21,NNW,345,1.0,2.0,88,0.00,,---,0.44,0.00,VWS V14.01,2013-02-26 05:15:00,
2013-02-25 21:20:00,36.5,33.8,30.23,NW,325,0.0,2.0,90,0.00,,---,0.44,0.00,VWS V14.01,2013-02-26 05:20:00,
2013-02-25 21:21:00,36.6,33.7,30.21,NNW,345,1.0,2.0,89,0.00,,---,0.44,0.00,VWS V14.01,2013-02-26 05:21:00,
2013-02-25 21:26:00,36.5,33.6,30.21,NNW,345,0.0,2.0,89,0.00,,---,0.44,0.00,VWS V14.01,2013-02-26 05:26:00,
2013-02-25 21:30:00,36.4,33.8,30.23,NW,325,0.0,1.0,90,0.00,,---,0.44,0.00,VWS V14.01,2013-02-26 05:30:00,
2013-02-25 21:31:00,36.5,33.8,30.21,NNW,345,0.0,2.0,90,0.00,,---,0.44,0.00,VWS V14.01,2013-02-26 05:31:00,
2013-02-25 21:36:00,36.4,33.8,30.22,NNW,346,2.0,2.0,90,0.00,,---,0.44,0.00,VWS V14.01,2013-02-26 05:36:00,
2013-02-25 21:40:00,36.0,33.4,30.24,NW,325,0.0,2.0,90,0.00,,---,0.44,0.00,VWS V14.01,2013-02-26 05:40:00,
2013-02-25 21:41:00,36.4,33.8,30.22,NNW,346,1.0,2.0,90,0.00,,---,0.44,0.00,VWS V14.01,2013-02-26 05:41:00,
2013-02-25 21:46:00,36.3,33.7,30.22,NNW,346,1.0,2.0,90,0.00,,---,0.44,0.00,VWS V14.01,2013-02-26 05:46:00,
2013-02-25 21:50:00,35.6,33.2,30.24,NW,325,0.0,2.0,91,0.00,,---,0.44,0.00,VWS V14.01,2013-02-26 05:50:00,
2013-02-25 21:51:00,36.2,33.6,30.22,NNW,346,0.0,3.0,90,0.00,,---,0.44,0.00,VWS V14.01,2013-02-26 05:51:00,
2013-02-25 21:56:00,36.1,33.7,30.22,NNW,346,0.0,1.0,91,0.00,,---,0.44,0.00,VWS V14.01,2013-02-26 05:56:00,
2013-02-25 22:00:00,35.5,33.1,30.24,NW,325,0.0,2.0,91,0.00,,---,0.44,0.00,VWS V14.01,2013-02-26 06:00:00,
2013-02-25 22:01:00,36.0,33.6,30.22,NNW,346,0.0,1.0,91,0.00,,---,0.44,0.00,VWS V14.01,2013-02-26 06:01:00,
2013-02-25 22:06:00,35.9,33.5,30.23,NNW,346,0.0,0.0,91,0.00,,---,0.44,0.00,VWS V14.01,2013-02-26 06:06:00,
2013-02-25 22:10:00,35.5,33.4,30.24,NW,325,1.0,2.0,92,0.00,,---,0.44,0.00,VWS V14.01,2013-02-26 06:10:00,
2013-02-25 22:11:00,36.2,33.8,30.23,NNW,348,1.0,2.0,91,0.00,,---,0.44,0.00,VWS V14.01,2013-02-26 06:11:00,
2013-02-25 22:16:00,36.3,33.9,30.23,NW,324,2.0,2.0,91,0.00,,---,0.44,0.00,VWS V14.01,2013-02-26 06:16:00,
2013-02-25 22:20:00,35.8,33.7,30.25,NW,325,0.0,2.0,92,0.00,,---,0.44,0.00,VWS V14.01,2013-02-26 06:20:00,
2013-02-25 22:21:00,36.4,33.8,30.23,NW,325,1.0,2.0,90,0.00,,---,0.44,0.00,VWS V14.01,2013-02-26 06:21:00,
2013-02-25 22:26:00,36.5,33.8,30.23,NW,325,0.0,1.0,90,0.00,,---,0.44,0.00,VWS V14.01,2013-02-26 06:26:00,
2013-02-25 22:30:00,35.8,33.7,30.26,NW,325,0.0,2.0,92,0.00,,---,0.44,0.00,VWS V14.01,2013-02-26 06:30:00,
2013-02-25 22:31:00,36.4,33.8,30.23,NW,325,0.0,1.0,90,0.00,,---,0.44,0.00,VWS V14.01,2013-02-26 06:31:00,
2013-02-25 22:36:00,36.2,33.6,30.24,NW,325,1.0,2.0,90,0.00,,---,0.44,0.00,VWS V14.01,2013-02-26 06:36:00,
2013-02-25 22:40:00,35.8,33.7,30.26,NW,325,0.0,2.0,92,0.00,,---,0.44,0.00,VWS V14.01,2013-02-26 06:40:00,
2013-02-25 22:41:00,36.0,33.4,30.24,NW,325,0.0,2.0,90,0.00,,---,0.44,0.00,VWS V14.01,2013-02-26 06:41:00,
2013-02-25 22:46:00,35.8,33.4,30.24,NW,325,2.0,2.0,91,0.00,,---,0.44,0.00,VWS V14.01,2013-02-26 06:46:00,
2013-02-25 22:50:00,35.9,34.1,30.26,NW,325,0.0,2.0,93,0.00,,---,0.44,0.00,VWS V14.01,2013-02-26 06:50:00,
2013-02-25 22:51:00,35.6,33.2,30.24,NW,325,0.0,2.0,91,0.00,,---,0.44,0.00,VWS V14.01,2013-02-26 06:51:00,
2013-02-25 22:56:00,35.6,33.2,30.24,NW,325,0.0,2.0,91,0.00,,---,0.44,0.00,VWS V14.01,2013-02-26 06:56:00,
2013-02-25 23:00:00,35.8,34.0,30.26,NW,325,0.0,2.0,93,0.00,,---,0.44,0.00,VWS V14.01,2013-02-26 07:00:00,
2013-02-25 23:01:00,35.5,33.4,30.24,NW,325,0.0,2.0,92,0.00,,---,0.44,0.00,VWS V14.01,2013-02-26 07:01:00,
2013-02-25 23:06:00,35.4,33.3,30.24,NW,325,1.0,2.0,92,0.00,,---,0.44,0.00,VWS V14.01,2013-02-26 07:06:00,
2013-02-25 23:10:00,35.7,33.9,30.26,NW,325,1.0,2.0,93,0.00,,---,0.00,0.00,VWS V14.01,2013-02-26 07:10:00,
2013-02-25 23:11:00,35.5,33.4,30.25,NW,325,1.0,2.0,92,0.00,,---,0.44,0.00,VWS V14.01,2013-02-26 07:11:00,
2013-02-25 23:16:00,35.6,33.5,30.25,NW,325,0.0,2.0,92,0.00,,---,0.44,0.00,VWS V14.01,2013-02-26 07:16:00,
2013-02-25 23:20:00,35.7,33.9,30.26,NW,325,0.0,1.0,93,0.00,,---,0.00,0.00,VWS V14.01,2013-02-26 07:20:00,
2013-02-25 23:21:00,35.8,33.7,30.25,NW,325,0.0,2.0,92,0.00,,---,0.44,0.00,VWS V14.01,2013-02-26 07:21:00,
2013-02-25 23:26:00,35.8,33.7,30.25,NW,325,0.0,0.0,92,0.00,,---,0.44,0.00,VWS V14.01,2013-02-26 07:26:00,
2013-02-25 23:30:00,35.6,33.8,30.27,NW,325,0.0,2.0,93,0.00,,---,0.00,0.00,VWS V14.01,2013-02-26 07:30:00,
2013-02-25 23:31:00,35.8,33.7,30.25,NW,325,0.0,2.0,92,0.00,,---,0.44,0.00,VWS V14.01,2013-02-26 07:31:00,
2013-02-25 23:36:00,35.8,33.7,30.25,NW,325,0.0,2.0,92,0.00,,---,0.44,0.00,VWS V14.01,2013-02-26 07:36:00,
2013-02-25 23:40:00,35.5,33.7,30.27,NW,325,0.0,2.0,93,0.00,,---,0.00,0.00,VWS V14.01,2013-02-26 07:40:00,
2013-02-25 23:41:00,35.8,33.7,30.25,NW,325,0.0,2.0,92,0.00,,---,0.44,0.00,VWS V14.01,2013-02-26 07:41:00,
2013-02-25 23:46:00,35.9,34.1,30.25,NW,325,0.0,2.0,93,0.00,,---,0.44,0.00,VWS V14.01,2013-02-26 07:46:00,
2013-02-25 23:50:00,35.4,33.6,30.27,NW,324,0.0,2.0,93,0.00,,---,0.00,0.00,VWS V14.01,2013-02-26 07:50:00,
2013-02-25 23:51:00,35.9,34.1,30.26,NW,325,0.0,2.0,93,0.00,,---,0.44,0.00,VWS V14.01,2013-02-26 07:51:00,
2013-02-25 23:56:00,35.9,34.1,30.26,NW,325,1.0,2.0,93,0.00,,---,0.44,0.00,VWS V14.01,2013-02-26 07:56:00,